Regional Weather Roundup
Issued by NWS

Home | Current Version | Previous Version | Graphics & Text | Print | Product List | Glossary On
Versions: 1 2 3 4 5 6 7 8 9 10 11 12 13 14 15 16 17 18 19 20 21 22 23 24 25 26 27 28 29 30 31 32 33 34 35 36 37 38 39 40 41 42 43 44 45 46 47 48 49 50
000
ASUS43 KBIS 030302
RWRND

NORTH DAKOTA REGIONAL WEATHER ROUNDUP
NATIONAL WEATHER SERVICE BISMARCK ND
1000 PM CDT WED SEP 02 2015

NOTE: "FAIR" INDICATES FEW OR NO CLOUDS BELOW 12,000 FEET WITH NO
SIGNIFICANT WEATHER AND/OR OBSTRUCTIONS TO VISIBILITY.


NDZ001>003-009>011-017-030400-
NORTHWEST NORTH DAKOTA

CITY           SKY/WX    TMP DP  RH WIND       PRES   REMARKS
WILLISTON      CLOUDY    80  51  36 E3        29.64R
MINOT          PTCLDY    72  60  66 E6        29.69S
MINOT AFB      PTCLDY    71  62  74 SE8       29.68S
$$

NDZ018>021-031>035-040>046-030400-
SOUTHWEST NORTH DAKOTA

CITY           SKY/WX    TMP DP  RH WIND       PRES   REMARKS
BISMARCK       CLEAR     74  64  71 E5        29.74R
DICKINSON      PTCLDY    74  52  46 SE8       29.72R
GARRISON         N/A     73  60  63 SE6       29.72R
HETTINGER ARPT CLEAR     75  54  47 SE6       29.76R
$$

NDZ004>008-012>016-024-026-027-054-030400-
NORTHEAST NORTH DAKOTA

CITY           SKY/WX    TMP DP  RH WIND       PRES   REMARKS
GRAND FORKS    CLEAR     77  65  66 SE12      29.80R
GRND FRKS AFB  CLEAR     75  66  73 SE9       29.81R
DEVILS LAKE    CLEAR     75  64  69 SE12      29.77R
$$

NDZ022-023-025-028>030-036>039-047>053-030400-
SOUTHEAST NORTH DAKOTA

CITY           SKY/WX    TMP DP  RH WIND       PRES   REMARKS
FARGO          CLEAR     78  68  71 SE13      29.82R
JAMESTOWN      CLEAR     76  70  82 SE13      29.78R
$$



USA.gov is the U.S. government's official web portal to all federal, state and local government web resources and services.